Probability
0 0 0 0 0 0 0 3 6 10 23 29 32 26 23 26 26 16 19 19 23 29 32 23 29 29 19 13 10 10 10 10 6 10 6 0 0 0 3 0 0 0 3 3
0 0 0 0 0 0 0 3 6 3 16 26 19 16 10 13 16 16 16 13 13 13 16 13 13 16 13 16 13 13 10 10 3 0 0 0 0 0 0 0 0 0 0 0
0 0 0 0 0 0 0 0 3 6 6 3 3 6 6 6 6 10 10 3 10 16 6 6 3 6 10 10 10 13 3 0 0 0 0 0 0 0 0 0 0 0 0 0
0 0 0 0 0 0 3 3 6 6 0 0 0 0 0 3 6 6 10 6 10 10 6 6 3 3 3 3 0 0 0 0 0 0 0 0 0 0 0 0 0 0 0 0
0 0 0 0 0 0 0 3 3 0 0 0 0 0 0 0 0 0 3 6 10 13 6 6 6 6 6 6 0 0 0 0 0 0 0 0 0 0 0 0 0 0 0 0
0 0 0 0 0 0 0 0 0 0 0 0 0 0 0 0 0 0 3 3 6 10 10 10 6 6 6 3 0 0 0 0 0 0 0 0 0 0 0 0 0 0 0 0
0 0 0 0 0 0 0 0 0 0 0 0 0 0 0 0 0 3 3 3 6 6 6 6 6 6 3 3 0 0 0 0 0 0 0 0 0 0 0 0 0 0 0 0
0 0 0 0 0 0 0 0 0 0 0 0 0 0 0 0 0 0 0 0 3 3 3 0 0 0 0 0 0 0 0 0 0 0 0 0 0 0 0 0 0 0 0 0
0 0 0 0 0 0 0 0 0 0 0 0 0 0 0 0 0 0 0 0 3 3 0 0 0 0 0 0 0 0 0 0 0 0 0 0 0 0 0 0 0 0 0 0
0 0 0 0 0 0 0 0 0 0 0 0 0 0 0 0 0 0 0 3 3 0 0 0 0 0 0 0 0 0 0 0 0 0 0 0 0 0 0 0 0 0 0 0
0 0 0 0 0 0 0 0 0 0 0 0 0 0 0 0 0 0 0 0 0 0 0 0 0 0 0 0 0 0 0 0 0 0 0 0 0 0 0 0 0 0 0 0
0 0 0 0 0 0 0 0 0 0 0 0 0 0 0 0 0 0 0 0 0 0 0 0 0 0 0 0 0 0 0 0 0 0 0 0 0 0 0 0 0 0 0 0
0 0 0 0 0 0 0 0 0 0 0 0 0 0 0 0 0 0 0 0 0 0 0 0 0 0 0 0 0 0 0 0 0 0 0 0 0 0 0 0 0 0 0 0
0 0 0 0 0 0 0 0 0 0 0 0 0 0 0 0 0 0 0 0 0 0 0 0 0 0 0 0 0 0 0 0 0 0 0 0 0 0 0 0 0 0 0 0
0 0 0 0 0 0 0 0 0 0 0 0 0 0 0 0 0 0 0 0 0 0 0 0 0 0 0 0 0 0 0 0 0 0 0 0 0 0 0 0 0 0 0 0
0 0 0 0 0 0 0 0 0 0 0 0 0 0 0 0 0 0 0 0 0 0 0 0 0 0 0 0 0 0 0 0 0 0 0 0 0 0 0 0 0 0 0 0
0 0 0 0 0 0 0 0 0 0 0 0 0 0 0 0 0 0 0 0 0 0 0 0 0 0 0 0 0 0 0 0 0 0 0 0 0 0 0 0 0 0 0 0
0 0 0 0 0 0 0 0 0 0 0 0 0 0 0 0 0 0 0 0 0 0 0 0 0 0 0 0 0 0 0 0 0 0 0 0 0 0 0 0 0 0 0 0
0 0 0 0 0 0 0 0 0 0 0 0 0 0 0 0 0 0 0 0 0 0 0 0 0 0 0 0 0 0 0 0 0 0 0 0 0 0 0 0 0 0 0 0
0 0 0 0 0 0 0 0 0 0 0 0 0 0 0 0 0 0 0 0 0 0 0 0 0 0 0 0 0 0 0 0 0 0 0 0 0 0 0 0 0 0 0 0
0 0 0 0 0 0 0 0 0 0 0 0 0 0 0 0 0 0 0 0 0 0 0 0 0 0 0 0 0 0 0 0 0 0 0 0 0 0 0 0 0 0 0 0
0 0 0 0 0 0 0 0 0 0 0 0 0 0 0 0 0 0 0 0 0 0 0 0 0 0 0 0 0 0 0 0 0 0 0 0 0 0 0 0 0 0 0 0
0 0 0 0 0 0 0 0 0 0 0 0 0 0 0 0 0 0 0 0 0 0 0 0 0 0 0 0 0 0 0 0 0 0 0 0 0 0 0 0 0 0 0 0
0 0 0 0 0 0 0 0 0 0 0 0 0 0 0 0 0 0 0 0 0 0 0 0 0 0 0 0 0 0 0 0 0 0 0 0 0 0 0 0 0 0 0 0
0 0 0 0 0 0 0 0 0 0 0 0 0 0 0 0 0 0 0 0 0 0 0 0 0 0 0 0 0 0 0 0 0 0 0 0 0 0 0 0 0 0 0 0
0 0 0 0 0 0 0 0 0 0 0 0 0 0 0 0 0 0 0 0 0 0 0 0 0 0 0 0 0 0 0 0 0 0 0 0 0 0 0 0 0 0 0 0
Height
5857 5857 5856 5855 5855 5855 5855 5855 5855 5856 5856 5856 5856 5857 5858 5857 5857 5856 5854 5853 5851 5850 5849 5847 5846 5845 5843 5842 5841 5839 5837 5835 5833 5831 5829 5828 5826 5824 5823 5821 5819 5818 5816 5815
5858 5857 5856 5855 5854 5854 5854 5855 5855 5855 5855 5855 5855 5855 5855 5855 5854 5852 5850 5848 5846 5845 5844 5843 5841 5840 5839 5837 5835 5834 5832 5830 5827 5825 5823 5821 5818 5816 5815 5813 5810 5807 5806 5806
5857 5857 5855 5854 5854 5854 5854 5854 5854 5854 5853 5853 5853 5853 5852 5851 5850 5848 5846 5844 5842 5841 5840 5839 5837 5836 5835 5833 5831 5829 5826 5824 5821 5819 5816 5813 5810 5808 5806 5804 5802 5800 5798 5797
5857 5856 5855 5854 5854 5853 5853 5853 5853 5853 5853 5852 5852 5851 5850 5848 5846 5844 5842 5840 5839 5838 5837 5837 5835 5834 5832 5830 5827 5824 5821 5818 5814 5811 5808 5805 5803 5800 5798 5796 5793 5791 5789 5787
5857 5855 5854 5854 5853 5853 5852 5852 5852 5852 5851 5851 5850 5848 5848 5845 5844 5842 5840 5839 5838 5837 5836 5835 5834 5831 5829 5826 5823 5819 5816 5812 5808 5805 5801 5798 5795 5792 5789 5786 5784 5781 5779 5778
5856 5855 5854 5853 5852 5852 5852 5852 5851 5850 5850 5849 5848 5847 5846 5844 5842 5841 5839 5838 5837 5836 5834 5833 5831 5828 5825 5822 5818 5814 5810 5807 5803 5799 5795 5791 5788 5784 5781 5778 5775 5772 5770 5768
5856 5855 5854 5853 5852 5852 5852 5852 5851 5849 5848 5848 5847 5845 5845 5843 5841 5840 5839 5837 5836 5834 5833 5830 5827 5824 5821 5817 5813 5809 5805 5801 5796 5792 5788 5784 5780 5777 5773 5770 5766 5763 5761 5758
5855 5854 5853 5852 5851 5851 5850 5851 5851 5850 5848 5847 5846 5845 5845 5842 5841 5839 5838 5836 5834 5832 5830 5827 5823 5820 5816 5812 5807 5803 5799 5794 5790 5785 5781 5777 5772 5769 5765 5761 5757 5754 5751 5749
5854 5854 5852 5851 5850 5850 5849 5849 5849 5849 5847 5846 5845 5845 5843 5842 5840 5838 5837 5835 5833 5830 5827 5823 5819 5815 5811 5806 5802 5797 5793 5788 5783 5778 5773 5769 5764 5760 5755 5751 5747 5744 5741 5738
5853 5852 5851 5851 5850 5849 5849 5848 5848 5847 5846 5845 5845 5843 5843 5840 5839 5837 5835 5833 5830 5827 5823 5819 5815 5810 5806 5801 5796 5791 5786 5781 5776 5771 5766 5761 5755 5750 5746 5741 5737 5733 5729 5726
5852 5851 5851 5850 5849 5848 5848 5848 5847 5846 5845 5844 5843 5844 5841 5839 5837 5835 5832 5829 5826 5822 5818 5814 5810 5805 5800 5795 5790 5785 5779 5774 5768 5763 5757 5751 5746 5740 5735 5730 5726 5721 5717 5714
5850 5849 5848 5848 5848 5847 5847 5846 5846 5845 5844 5843 5842 5844 5839 5837 5834 5832 5829 5826 5822 5818 5814 5809 5805 5800 5795 5789 5783 5778 5772 5766 5760 5755 5748 5742 5736 5731 5725 5720 5714 5709 5705 5701
5848 5848 5848 5847 5848 5847 5845 5845 5844 5844 5843 5841 5840 5841 5836 5834 5831 5829 5825 5822 5818 5814 5809 5805 5800 5794 5789 5783 5777 5771 5765 5759 5753 5747 5740 5734 5728 5721 5715 5709 5703 5697 5693 5688
5847 5846 5847 5846 5845 5844 5844 5843 5842 5841 5840 5839 5837 5836 5834 5831 5828 5825 5822 5818 5814 5810 5805 5800 5795 5789 5783 5777 5771 5765 5758 5752 5746 5739 5732 5726 5719 5712 5705 5699 5692 5687 5681 5677
5845 5844 5844 5843 5843 5842 5842 5841 5840 5839 5838 5836 5835 5832 5831 5828 5825 5822 5818 5814 5810 5806 5801 5796 5790 5784 5778 5771 5765 5759 5752 5745 5739 5732 5725 5717 5710 5703 5696 5689 5682 5676 5671 5665
5842 5842 5841 5841 5840 5840 5839 5839 5837 5836 5835 5833 5832 5830 5827 5824 5821 5818 5814 5810 5806 5802 5796 5791 5785 5779 5773 5766 5760 5753 5746 5739 5732 5724 5717 5709 5701 5694 5686 5679 5673 5666 5660 5654
5840 5840 5840 5839 5838 5838 5837 5836 5835 5834 5832 5831 5829 5827 5824 5821 5818 5814 5811 5807 5802 5797 5792 5786 5780 5774 5768 5761 5754 5747 5740 5733 5725 5717 5710 5702 5694 5686 5678 5671 5664 5657 5650 5644
5838 5838 5837 5837 5837 5836 5837 5833 5832 5831 5829 5827 5825 5823 5820 5818 5814 5811 5807 5803 5798 5793 5788 5782 5776 5770 5763 5756 5749 5742 5734 5727 5719 5711 5703 5695 5686 5678 5671 5663 5656 5649 5642 5635
5835 5835 5835 5835 5834 5833 5833 5831 5829 5828 5827 5824 5822 5819 5817 5814 5811 5807 5803 5799 5795 5789 5784 5778 5772 5765 5758 5751 5744 5736 5729 5721 5713 5705 5697 5689 5680 5672 5665 5657 5650 5642 5634 5628
5833 5833 5833 5832 5831 5831 5831 5828 5826 5826 5823 5821 5818 5816 5813 5810 5808 5804 5800 5795 5791 5785 5780 5774 5767 5761 5754 5747 5739 5732 5724 5716 5708 5700 5692 5684 5675 5667 5659 5652 5644 5636 5628 5621
5830 5830 5830 5829 5828 5827 5827 5825 5823 5822 5821 5818 5815 5812 5809 5806 5804 5800 5796 5791 5787 5782 5776 5770 5763 5756 5749 5742 5735 5727 5719 5712 5704 5695 5687 5679 5670 5662 5654 5646 5638 5630 5622 5615
5826 5827 5826 5826 5825 5826 5822 5821 5819 5818 5815 5813 5811 5808 5805 5803 5799 5796 5792 5787 5783 5777 5772 5766 5759 5752 5745 5738 5730 5723 5715 5708 5699 5691 5683 5674 5666 5658 5650 5641 5633 5625 5617 5610
5822 5823 5823 5823 5823 5820 5818 5817 5815 5813 5811 5809 5807 5804 5802 5799 5795 5792 5788 5783 5778 5773 5767 5761 5755 5748 5741 5734 5727 5719 5712 5704 5695 5687 5679 5670 5662 5653 5645 5637 5629 5621 5613 5605
5819 5819 5818 5818 5817 5816 5814 5812 5811 5809 5807 5805 5803 5800 5798 5795 5791 5787 5783 5779 5774 5769 5763 5757 5751 5744 5737 5730 5723 5715 5708 5700 5692 5683 5675 5667 5658 5650 5641 5633 5625 5617 5609 5601
5814 5814 5813 5813 5812 5811 5810 5808 5806 5804 5802 5800 5798 5796 5793 5790 5787 5783 5779 5774 5770 5764 5759 5753 5747 5740 5733 5726 5719 5712 5704 5696 5688 5680 5671 5663 5655 5646 5638 5630 5622 5614 5606 5598
5809 5808 5807 5807 5807 5806 5805 5803 5802 5800 5798 5796 5794 5791 5788 5785 5782 5778 5774 5770 5765 5760 5754 5749 5742 5736 5729 5722 5715 5708 5700 5692 5684 5676 5668 5660 5652 5643 5635 5627 5619 5611 5603 5596
Wind_Speed
10 9 7 7 7 8 9 9 10 12 12 12 11 13 14 15 16 18 19 20 23 25 26 26 23 23 23 23 24 25 25 26 28 28 30 30 30 30 31 32 33 34 34 34
7 7 7 7 7 7 9 10 10 10 10 10 10 11 13 14 17 18 19 20 21 23 23 21 20 21 21 22 24 25 27 28 29 30 31 32 32 32 33 34 34 34 35 35
7 7 6 7 8 8 9 9 10 10 10 11 12 12 12 14 16 17 17 17 18 18 19 18 17 18 20 22 24 26 28 29 30 31 32 33 33 33 34 34 35 35 36 37
5 5 5 6 7 8 9 9 10 11 11 11 12 12 13 15 15 14 13 14 14 14 15 15 16 18 20 23 25 27 29 30 32 33 34 34 34 35 35 35 35 36 36 36
5 6 5 6 7 8 8 9 10 11 11 11 11 13 13 12 12 11 10 10 10 10 12 14 15 17 20 22 24 26 28 30 31 33 33 34 34 35 35 35 36 36 36 35
5 5 6 8 8 8 8 8 9 10 10 10 10 11 11 10 10 9 8 8 9 10 12 14 16 18 21 22 24 26 28 30 31 32 32 33 34 34 35 35 35 35 36 35
6 6 6 7 7 7 7 7 7 7 8 8 8 8 7 8 7 6 8 8 9 11 13 16 18 20 22 23 25 26 28 29 30 31 32 32 33 33 33 34 35 35 35 36
7 6 6 6 5 5 5 6 7 7 7 6 6 5 6 6 6 7 9 9 11 12 14 17 19 21 23 25 26 28 29 30 31 31 32 33 33 33 34 35 35 35 36 36
7 6 5 5 5 5 5 5 6 6 6 5 5 5 6 7 8 9 10 11 12 14 16 18 21 23 25 26 28 29 30 30 31 32 32 33 34 35 36 36 36 36 36 37
7 7 6 5 5 5 5 5 6 5 4 4 4 5 5 7 9 10 12 13 14 16 19 21 23 25 27 28 29 30 31 31 32 32 33 34 35 36 36 37 37 37 38 38
6 6 6 5 5 5 5 5 5 4 5 4 4 6 7 9 11 12 13 15 17 19 21 23 25 27 28 29 31 32 32 33 34 34 35 36 37 37 37 38 38 38 38 38
6 6 6 6 5 6 6 5 5 5 5 6 7 8 10 11 12 14 15 17 19 21 24 26 28 29 31 32 33 34 34 35 35 36 37 37 38 38 38 39 39 38 38 38
7 6 6 6 6 6 6 6 6 6 7 9 10 11 12 13 15 16 18 19 21 23 26 28 30 31 33 34 35 35 35 36 36 37 38 38 39 39 39 39 38 38 37 37
8 7 7 7 7 7 7 7 7 8 9 11 12 13 14 15 17 18 19 21 23 25 27 29 32 33 34 36 36 36 36 37 37 38 39 39 40 40 39 38 38 38 37 37
9 9 8 8 8 7 7 8 8 9 11 13 14 15 16 17 18 19 21 22 24 27 29 31 33 35 36 37 37 37 37 38 38 39 40 40 40 40 39 39 38 37 37 37
9 9 9 8 8 7 8 8 9 11 12 13 14 15 16 18 19 20 21 23 26 28 30 33 35 36 37 37 37 37 38 39 39 40 40 41 41 40 39 38 37 37 37 36
9 9 9 8 8 8 8 8 9 11 13 14 15 16 17 18 19 20 22 24 27 30 32 34 36 37 37 37 37 38 39 40 40 40 41 41 41 40 38 37 37 37 37 36
9 9 9 9 9 8 8 10 11 12 13 15 16 17 18 19 19 21 23 25 28 31 33 35 36 37 37 38 38 39 40 40 41 40 40 41 40 39 37 36 37 36 35 35
10 10 10 9 9 8 9 11 12 13 14 15 16 17 18 18 20 22 24 26 29 31 34 35 36 37 38 38 39 40 40 41 41 40 40 41 40 38 37 36 36 36 35 35
11 11 11 10 9 8 9 11 13 14 14 15 16 17 18 19 20 22 25 27 29 32 34 35 36 37 38 39 39 40 40 40 40 40 40 41 39 38 36 36 36 36 35 34
10 10 10 10 10 10 11 12 14 14 15 15 16 17 18 20 21 23 25 28 30 32 34 35 36 38 38 39 40 40 40 40 40 40 40 41 39 38 37 36 37 36 35 34
12 11 11 11 11 12 13 14 15 15 16 17 17 18 19 21 22 24 26 29 30 32 34 35 37 38 39 39 39 40 40 40 41 40 40 41 39 38 37 36 36 36 35 34
13 12 12 11 12 13 14 15 16 16 17 18 18 19 20 22 23 25 27 29 31 32 34 35 37 38 39 39 40 39 40 41 41 41 41 41 40 38 37 37 36 35 35 34
14 13 13 13 13 14 15 16 17 18 18 19 19 20 21 22 24 26 27 29 31 33 34 36 37 38 39 39 39 39 40 41 41 41 41 40 39 38 37 37 36 35 35 34
15 16 15 15 15 15 16 17 18 18 19 20 20 21 22 23 24 26 27 29 31 33 35 36 37 38 38 39 39 40 41 42 41 41 41 40 39 38 37 37 36 35 34 34
18 19 18 17 17 17 17 18 18 19 20 20 21 22 22 23 25 27 28 30 32 33 35 36 37 38 39 39 39 40 41 42 41 41 40 40 39 38 37 36 35 34 34 34
Wind_Direction
331 321 309 296 282 262 241 234 238 239 244 251 255 260 265 272 277 282 285 286 287 288 288 288 287 289 288 290 291 293 295 293 295 296 295 294 294 294 291 288 287 285 284 282
332 320 303 286 276 259 248 245 252 251 256 260 266 269 275 282 289 293 294 293 290 289 289 288 288 289 290 293 294 295 298 300 298 299 298 297 297 296 294 292 291 288 285 282
327 327 309 288 271 261 260 262 265 268 272 276 281 284 293 299 301 301 300 298 296 293 290 291 296 295 296 297 300 303 303 303 303 301 300 300 299 297 295 294 292 289 286 283
326 317 307 293 280 273 267 270 272 272 279 287 294 296 300 304 307 307 306 302 298 294 292 294 298 302 302 303 304 305 305 305 304 304 303 302 301 299 297 295 292 290 288 285
313 301 301 297 292 290 279 276 279 279 285 291 292 298 305 305 308 313 312 307 304 301 299 298 302 306 306 306 306 307 307 306 305 304 303 302 301 299 298 296 294 292 290 288
310 297 297 300 297 287 286 282 286 288 292 297 297 301 308 309 307 308 312 310 309 307 304 305 307 309 310 310 310 310 310 308 307 305 304 303 301 300 299 297 295 293 291 288
309 299 292 294 295 284 285 290 297 299 302 301 299 303 309 317 315 310 310 311 309 307 308 310 312 313 314 315 315 314 313 311 310 308 306 304 303 301 299 298 296 293 290 288
317 309 303 294 292 291 287 290 296 302 308 307 307 309 308 310 319 318 314 313 312 314 317 319 320 320 321 321 321 320 318 316 313 311 309 307 305 303 300 298 296 293 290 288
308 308 304 295 294 298 295 298 302 305 312 309 305 301 303 307 309 312 317 318 318 322 326 327 327 327 327 326 325 323 321 319 317 314 311 309 307 305 303 300 297 295 291 289
300 298 293 290 296 301 293 296 301 303 314 316 314 306 311 312 311 315 318 320 324 330 333 333 334 333 331 329 327 325 323 322 320 317 315 313 310 308 305 303 300 296 293 290
297 295 291 286 292 299 300 303 309 315 327 333 332 326 320 319 321 322 324 327 331 335 337 337 337 335 333 331 329 327 326 325 323 322 320 318 315 312 309 306 302 299 295 291
292 292 290 286 285 288 291 298 307 319 328 328 332 333 328 327 328 329 332 335 337 338 338 338 337 336 335 333 332 330 328 327 326 324 322 320 318 315 312 309 305 301 297 293
287 285 282 275 275 277 282 290 302 313 321 324 328 332 331 331 331 334 337 339 340 340 339 339 338 337 336 335 334 332 330 329 328 326 324 323 321 318 315 312 309 306 301 297
285 281 280 276 274 273 277 284 295 307 316 320 323 325 327 329 332 335 338 340 341 340 340 340 340 339 337 336 335 334 332 331 330 328 327 325 323 321 319 316 312 309 305 302
281 279 279 277 274 275 276 283 293 303 310 314 318 321 325 328 333 336 338 340 341 341 341 341 341 340 338 337 336 336 335 333 332 330 329 328 326 324 322 319 316 313 309 306
280 281 282 279 278 280 280 285 289 297 304 309 314 318 323 328 333 335 337 339 341 341 342 342 342 340 339 338 338 337 336 335 334 333 331 330 328 326 325 323 320 317 313 310
278 283 286 286 288 288 283 286 289 297 305 309 313 320 324 329 332 334 337 339 341 341 342 342 341 341 340 340 340 339 338 337 336 335 334 333 332 330 329 327 324 322 318 315
271 279 287 287 287 288 291 290 295 300 306 310 315 321 326 330 332 334 337 339 340 341 341 342 341 341 342 342 341 341 340 340 339 338 337 337 335 334 332 331 330 328 325 322
267 272 281 285 288 292 290 293 296 301 305 309 315 321 326 329 332 334 337 339 340 341 341 341 342 342 343 343 342 342 342 341 341 340 339 339 338 336 335 333 332 331 329 326
264 269 276 283 288 294 291 294 299 305 308 312 317 321 326 330 332 334 336 338 339 340 341 341 342 343 343 343 343 343 343 342 342 342 341 340 340 338 337 335 335 334 333 330
267 270 275 280 289 296 296 301 304 310 315 317 320 324 328 331 332 333 334 336 338 339 340 342 342 343 343 344 344 344 343 343 343 343 342 342 341 340 339 338 338 337 336 334
265 271 276 284 295 298 299 304 308 312 315 318 321 324 327 328 330 331 333 335 337 338 339 341 342 343 343 344 344 344 344 344 344 343 343 343 342 342 342 341 341 340 339 337
267 272 278 288 296 298 302 305 307 310 313 316 319 322 324 326 328 330 333 335 337 338 339 340 341 342 343 343 344 344 344 344 344 344 344 344 343 343 343 343 343 342 342 340
269 276 282 289 295 298 300 303 305 307 310 313 315 318 320 323 326 329 332 335 337 338 339 340 341 342 343 343 344 344 344 344 344 344 344 344 344 344 344 345 345 344 344 343
273 275 278 283 288 292 296 298 301 304 306 308 311 314 316 320 324 328 331 334 335 337 338 339 340 341 342 343 343 343 344 344 345 345 345 345 345 345 345 345 345 345 345 346
268 271 275 280 284 288 292 294 297 299 301 304 307 310 314 318 322 326 329 331 333 335 336 338 339 340 341 342 342 342 343 344 344 345 345 345 345 345 345 346 346 346 347 348